Погода в Шемалакове

Россия / Чувашская Республика     54°58′23″N   47°54′31″E
темп.,
°C
ветер,
м/с
пор.,
м/с
влажн.,
%
обл.,
%
осадки,
мм/ч
давл.,
гПа
погр.,
м
29 мая, вс
вс2900:00+9зюз714850 0.0 1007626
03:00+7юз512910 0.0 1009347
06:00+10зюз613830 0.0 1011496
09:00+14зюз710645 0.0 10121161
12:00+17зюз8115298 0.0 10132168
15:00+17юз61058100 0.0 10141787
18:00+14зюз61170100 0.2 1015632
21:00+11юз51085100 0.7 1016397
30 мая, пн
пн3000:00+9юз4992100 0.0 1016233
03:00+8зюз399411 0.0 1017200
06:00+10з47825 0.0 1018268
09:00+15з57620 0.0 1019992
12:00+17зсз56470 0.0 10201834
15:00+18з56445 0.0 10202186
18:00+17з366129 0.0 1021235
21:00+12зсз3372100 0.0 102230
31 мая, вт
вт3100:00+11з227368 0.0 102316
03:00+10зсз227697 0.0 102412
06:00+13сз117195 0.0 102482
09:00+17юз115671 0.0 1024616
12:00+20зюз114415 0.0 10241658
15:00+21сз11415 0.0 10241898
18:00+19вюв235812 0.0 102387
21:00+14ююв2266100 0.0 102415
1 июня, ср
ср100:00+13ююв225939 0.0 102412
03:00+12юв227415 0.0 102413
06:00+14юв347796 0.0 1025167
09:00+18ююв456147 0.0 1024630
12:00+21ююв555593 0.0 10241252
15:00+21ююв5656100 0.0 10231373
18:00+19юв476913 0.0 1023338
21:00+17ююв4975100 0.1 1023190
2 июня, чт
чт200:00+15ю498072 0.0 1022177
03:00+15ю387898 0.1 1022192
06:00+16ю4107881 0.1 1022272
09:00+20ююз566797 0.3 1022588
12:00+22ююз576157 0.2 1022941
15:00+24ююз675952 0.2 10211289
18:00+21ююв587675 0.0 1020348
21:00+17ю498893 0.1 1020175